Location: Paderno d�Adda
(45.6667°N, 9.4333°E)
Time: 17:07:41
(UTC+00:00)

Abrixas rocket - Pass Details

Date: 19 September 2020
Orbit: 329 x 337 km, 48.4° (Epoch: 20 October)

Event Time Altitude Azimuth Distance (km) Brightness Sun altitude
Rises 18:20:58 0° 269° (W) 2,097 7.6 -10.5°
Reaches altitude 10° 18:23:00 10° 275° (W) 1,260 6.2 -10.9°
Maximum altitude 18:25:45 49° 352° (N) 436 2.5 -11.3°
Enters shadow 18:27:45 16° 65° (ENE) 968 3.6 -11.7°
